{"data":{"norad_id":68393,"epoch":"2026-05-25T00:00:02.000160Z","epoch_age_seconds":75323,"freshness":"FRESH","line1":"1 68393U 26063P   26145.00002315 -.00036072  00000+0 -11196-2 0  9994","line2":"2 68393  97.2847 287.5770 0001466  87.4949 175.5210 15.33465815  6011","mean_motion":15.33465815,"eccentricity":0.0001466,"inclination_deg":97.2847,"raan_deg":287.577,"arg_perigee_deg":87.4949,"mean_anomaly_deg":175.521,"bstar":-0.0011196,"rev_number":601,"period_min":93.904929990239,"perigee_km":464.47796994864,"apogee_km":466.48451881789,"semimajor_km":6843.6182443833,"source":"CELESTRAK","updated_at":"2026-05-25T13:38:21.931069Z"}}